TimeCST,TemperatureF,Dew PointF,Humidity,Sea Level PressureIn,VisibilityMPH,Wind Direction,Wind SpeedMPH,Gust SpeedMPH,PrecipitationIn,Events,Conditions,WindDirDegrees,DateUTC
12:55 AM,47.8,42.1,80,30.16,10.0,NW,8.1,-,N/A,,Overcast,320,2013-01-03 06:55:00
1:00 AM,48.2,41.0,76,30.17,10.0,NW,8.1,-,N/A,Rain,Light Rain,320,2013-01-03 07:00:00
1:53 AM,46.4,42.8,87,30.17,10.0,NNW,9.2,-,N/A,,Overcast,330,2013-01-03 07:53:00
1:55 AM,46.0,42.1,86,30.17,10.0,NNW,8.1,-,0.00,,Overcast,330,2013-01-03 07:55:00
2:29 AM,44.6,41.0,87,30.17,10.0,NNW,10.4,-,N/A,Rain,Light Rain,340,2013-01-03 08:29:00
2:55 AM,45.1,42.1,89,30.17,10.0,North,6.9,-,0.00,Rain,Light Rain,350,2013-01-03 08:55:00
3:20 AM,44.6,42.8,93,30.16,10.0,North,5.8,-,N/A,,Mostly Cloudy,10,2013-01-03 09:20:00
3:54 AM,44.6,41.0,87,30.18,10.0,North,9.2,-,N/A,Rain,Light Rain,350,2013-01-03 09:54:00
3:55 AM,44.8,41.5,88,30.18,10.0,North,10.4,-,0.00,Rain,Light Rain,350,2013-01-03 09:55:00
4:45 AM,44.6,41.0,87,30.17,10.0,North,9.2,-,N/A,Rain,Light Rain,350,2013-01-03 10:45:00
4:47 AM,44.6,41.0,87,30.17,10.0,North,10.4,-,N/A,Rain,Light Rain,350,2013-01-03 10:47:00
4:55 AM,43.7,41.4,91,30.17,10.0,North,8.1,-,0.01,Rain,Light Rain,350,2013-01-03 10:55:00
5:32 AM,42.8,41.0,93,30.19,10.0,NNW,6.9,-,N/A,Rain,Light Rain,340,2013-01-03 11:32:00
5:35 AM,42.8,41.0,93,30.19,10.0,North,5.8,-,N/A,Rain,Light Rain,360,2013-01-03 11:35:00
5:45 AM,42.8,41.0,93,30.20,10.0,NNW,4.6,-,N/A,Rain,Light Rain,330,2013-01-03 11:45:00
5:55 AM,43.3,41.4,93,30.20,10.0,NNW,6.9,-,0.01,Rain,Light Rain,330,2013-01-03 11:55:00
6:18 AM,42.8,41.0,93,30.20,10.0,NNW,6.9,-,N/A,Rain,Light Rain,340,2013-01-03 12:18:00
6:55 AM,43.3,41.4,93,30.22,8.0,NNW,3.5,-,0.01,Rain,Light Rain,330,2013-01-03 12:55:00
7:32 AM,42.8,41.0,93,30.23,8.0,NW,4.6,-,N/A,Rain,Light Rain,320,2013-01-03 13:32:00
7:55 AM,43.3,41.7,94,30.22,10.0,North,6.9,-,0.02,Rain,Light Rain,350,2013-01-03 13:55:00
7:56 AM,42.8,41.0,93,30.22,10.0,North,6.9,-,N/A,Rain,Light Rain,350,2013-01-03 13:56:00
8:13 AM,42.8,41.0,93,30.22,10.0,North,5.8,-,N/A,Rain,Light Rain,10,2013-01-03 14:13:00
8:55 AM,43.5,41.7,93,30.26,9.0,NNW,6.9,-,0.01,Rain,Light Rain,330,2013-01-03 14:55:00
9:09 AM,42.8,41.0,93,30.26,7.0,NNW,6.9,-,N/A,Rain,Rain,340,2013-01-03 15:09:00
9:16 AM,44.6,42.8,93,30.26,8.0,Calm,Calm,-,N/A,Rain,Light Rain,0,2013-01-03 15:16:00
9:26 AM,42.8,41.0,93,30.26,7.0,NNW,5.8,-,N/A,Rain,Light Rain,340,2013-01-03 15:26:00
9:33 AM,44.6,42.8,93,30.26,7.0,Variable,4.6,-,N/A,Rain,Light Rain,0,2013-01-03 15:33:00
9:50 AM,44.6,41.0,87,30.27,10.0,NNW,6.9,-,N/A,Rain,Light Rain,330,2013-01-03 15:50:00
9:55 AM,43.9,41.9,93,30.27,10.0,North,3.5,-,0.06,Rain,Light Rain,360,2013-01-03 15:55:00
9:56 AM,44.6,41.0,87,30.26,10.0,Calm,Calm,-,N/A,Rain,Light Rain,0,2013-01-03 15:56:00
10:07 AM,44.6,42.8,93,30.25,10.0,NNW,6.9,-,N/A,Rain,Light Rain,340,2013-01-03 16:07:00
10:14 AM,44.6,42.8,93,30.25,10.0,North,6.9,-,N/A,Rain,Light Rain,10,2013-01-03 16:14:00
10:18 AM,44.6,42.8,93,30.24,10.0,North,5.8,-,N/A,Rain,Light Rain,10,2013-01-03 16:18:00
10:36 AM,44.6,42.8,93,30.23,10.0,NE,3.5,-,N/A,Rain,Light Rain,50,2013-01-03 16:36:00
10:40 AM,44.6,42.8,93,30.23,10.0,NE,5.8,-,N/A,Rain,Light Rain,40,2013-01-03 16:40:00
10:41 AM,44.6,42.8,93,30.23,10.0,NE,5.8,-,N/A,Rain,Light Rain,50,2013-01-03 16:41:00
10:55 AM,44.4,42.4,93,30.25,10.0,NW,8.1,-,0.01,,Light Drizzle,320,2013-01-03 16:55:00
11:13 AM,44.6,42.8,93,30.25,10.0,North,5.8,-,N/A,,Light Drizzle,350,2013-01-03 17:13:00
11:17 AM,44.6,42.8,93,30.24,10.0,North,5.8,-,N/A,,Light Drizzle,350,2013-01-03 17:17:00
11:31 AM,44.6,42.8,93,30.23,10.0,NNW,8.1,-,N/A,,Overcast,330,2013-01-03 17:31:00
11:42 AM,44.6,41.0,87,30.22,10.0,NNW,10.4,-,N/A,,Overcast,340,2013-01-03 17:42:00
11:48 AM,44.6,41.0,87,30.22,10.0,North,8.1,-,N/A,,Overcast,360,2013-01-03 17:48:00
11:49 AM,44.6,41.0,87,30.22,10.0,North,8.1,-,N/A,,Overcast,350,2013-01-03 17:49:00
11:51 AM,44.6,41.0,87,30.22,10.0,North,9.2,-,N/A,,Overcast,360,2013-01-03 17:51:00
11:55 AM,45.1,41.9,88,30.22,10.0,North,8.1,-,0.00,,Overcast,360,2013-01-03 17:55:00
11:56 AM,44.6,42.8,93,30.22,10.0,North,6.9,-,N/A,,Overcast,350,2013-01-03 17:56:00
12:06 PM,44.6,42.8,93,30.22,10.0,NW,9.2,-,N/A,,Overcast,320,2013-01-03 18:06:00
12:17 PM,44.6,42.8,93,30.21,10.0,NNW,6.9,-,N/A,,Overcast,330,2013-01-03 18:17:00
12:29 PM,46.4,42.8,87,30.19,10.0,NNW,9.2,-,N/A,,Mostly Cloudy,330,2013-01-03 18:29:00
12:31 PM,46.4,42.8,87,30.20,10.0,NNW,9.2,-,N/A,,Mostly Cloudy,340,2013-01-03 18:31:00
12:34 PM,46.4,42.8,87,30.20,10.0,NNW,9.2,-,N/A,,Mostly Cloudy,340,2013-01-03 18:34:00
12:55 PM,46.0,42.1,86,30.21,10.0,NNW,8.1,-,N/A,,Overcast,330,2013-01-03 18:55:00
1:55 PM,45.9,41.5,85,30.22,10.0,NNW,9.2,-,N/A,,Overcast,340,2013-01-03 19:55:00
2:31 PM,46.4,41.0,81,30.22,10.0,NW,6.9,-,N/A,,Overcast,320,2013-01-03 20:31:00
2:38 PM,46.4,41.0,81,30.21,10.0,NNW,4.6,-,N/A,,Overcast,330,2013-01-03 20:38:00
2:55 PM,46.0,41.2,83,30.23,10.0,NNW,5.8,-,N/A,,Overcast,330,2013-01-03 20:55:00
3:16 PM,46.4,41.0,81,30.23,10.0,North,5.8,-,N/A,,Mostly Cloudy,350,2013-01-03 21:16:00
3:31 PM,46.4,41.0,81,30.24,10.0,NNW,9.2,-,N/A,,Mostly Cloudy,330,2013-01-03 21:31:00
3:39 PM,46.4,41.0,81,30.24,10.0,NNW,6.9,-,N/A,,Overcast,330,2013-01-03 21:39:00
3:55 PM,46.0,40.5,81,30.24,10.0,North,9.2,-,N/A,,Overcast,350,2013-01-03 21:55:00
4:55 PM,44.6,39.6,82,30.26,10.0,NNW,5.8,-,N/A,,Clear,340,2013-01-03 22:55:00
5:55 PM,42.8,39.0,86,30.28,10.0,NW,5.8,-,N/A,,Partly Cloudy,320,2013-01-03 23:55:00
6:55 PM,42.3,38.5,86,30.29,10.0,North,4.6,-,N/A,,Clear,360,2013-01-04 00:55:00
7:55 PM,40.3,37.2,89,30.31,10.0,NW,5.8,-,N/A,,Clear,320,2013-01-04 01:55:00
8:55 PM,39.9,35.1,83,30.31,10.0,NNW,8.1,-,N/A,,Clear,340,2013-01-04 02:55:00
9:55 PM,39.2,33.3,79,30.32,10.0,NNW,10.4,-,N/A,,Clear,340,2013-01-04 03:55:00
10:55 PM,38.1,32.5,80,30.33,10.0,Variable,6.9,-,N/A,,Clear,0,2013-01-04 04:55:00
11:55 PM,37.2,32.0,81,30.31,10.0,North,6.9,-,N/A,,Clear,350,2013-01-04 05:55:00